EHI
0 0 0 0 0 0 0 0 0 0 0 1 4 8 10 11 15 18 16 13 12 12 10 9 7 4 1 1 2 2 2 1 0 0 0 0 0 0 0 0 0 0 0 0
0 0 0 0 0 0 0 0 0 0 0 0 2 4 6 8 12 16 15 12 10 10 10 8 6 3 1 0 1 1 1 0 0 0 0 0 0 0 0 0 0 0 0 0
0 0 0 0 0 0 0 0 0 0 0 0 0 1 1 3 7 12 14 11 9 10 10 9 7 4 2 1 0 0 0 0 0 0 0 0 0 0 0 1 1 0 0 0
0 0 0 0 0 0 0 0 0 0 0 0 0 0 0 0 3 8 11 10 9 10 10 9 7 5 3 2 1 0 0 0 1 1 1 1 0 0 0 1 1 0 0 0
0 0 0 0 0 0 0 0 0 0 0 0 0 0 0 0 2 5 7 8 9 9 10 9 7 5 4 3 2 1 1 2 2 2 2 1 0 0 1 1 1 1 0 0
0 0 0 0 0 0 0 0 0 0 0 0 0 0 0 0 1 4 6 8 10 10 9 8 7 5 4 4 3 2 2 2 2 2 2 1 0 0 1 2 2 2 1 0
0 0 0 0 0 0 0 0 0 0 0 0 0 0 0 0 1 3 6 9 10 9 8 7 6 4 4 4 3 2 1 2 1 1 1 0 0 1 2 3 3 2 1 0
0 0 0 0 0 0 0 0 0 0 0 0 0 0 0 0 0 2 5 8 9 7 5 4 3 2 2 3 3 1 0 0 0 0 0 0 0 1 2 2 2 1 0 0
0 0 0 0 0 0 0 0 0 0 0 0 0 0 0 0 1 2 5 7 7 6 3 1 1 0 1 2 2 1 1 1 1 0 0 0 0 1 1 1 1 0 0 0
0 0 0 0 0 0 0 0 0 0 0 0 0 0 0 0 1 3 4 5 6 6 3 1 0 0 0 1 1 1 1 2 1 0 0 0 0 0 0 0 0 0 0 0
0 0 0 0 0 0 0 0 0 0 0 0 0 0 0 0 0 1 2 4 5 5 3 1 0 0 0 0 0 0 1 1 1 0 0 0 0 0 0 0 0 0 0 0
0 0 0 0 0 0 0 0 0 0 0 0 0 0 0 0 0 0 1 3 5 4 2 0 0 0 0 0 0 0 0 0 0 0 0 0 0 0 0 0 0 0 0 0
0 0 0 0 0 0 0 0 0 0 0 0 0 0 0 0 0 0 1 3 4 3 1 0 0 0 0 0 0 0 0 0 0 0 0 0 0 0 0 0 0 0 0 0
0 0 0 0 0 0 0 0 0 0 0 0 0 0 0 0 0 0 1 3 4 2 0 0 0 0 0 0 0 0 0 0 0 0 0 0 0 0 0 0 0 0 0 0
0 0 0 0 0 0 0 0 0 0 0 0 0 0 0 0 0 0 1 2 2 1 0 0 0 0 0 0 0 0 0 0 0 0 0 0 0 0 0 0 0 0 0 0
0 0 0 0 0 0 0 0 0 0 0 0 0 0 0 0 0 0 0 1 1 0 0 0 0 0 0 0 0 0 0 0 0 0 0 0 0 0 0 0 0 0 0 0
0 0 0 0 0 0 0 0 0 0 0 0 0 0 0 0 0 0 0 0 0 0 0 0 0 0 0 0 0 0 0 0 0 0 0 0 0 0 0 0 0 0 0 0
0 0 0 0 0 0 0 0 0 0 0 0 0 0 0 0 0 0 0 0 0 0 0 0 0 0 0 0 0 0 0 0 0 0 0 0 0 0 0 0 0 0 0 0
0 0 0 0 0 0 0 0 0 0 0 0 0 0 0 0 0 0 0 0 0 0 0 0 0 0 0 0 0 0 0 0 0 0 0 0 0 0 0 0 0 0 0 0
0 0 0 0 0 0 0 0 0 0 0 0 0 0 0 0 0 0 0 0 0 0 0 0 0 0 0 0 0 0 0 0 0 0 0 0 0 0 0 0 0 0 0 0
0 0 0 0 0 0 0 0 0 0 0 0 0 0 0 0 0 0 0 0 0 0 0 0 0 0 0 0 0 0 0 0 0 0 0 0 0 0 0 0 0 0 0 0
0 0 0 0 0 0 0 0 0 0 0 0 0 0 0 0 0 0 0 0 0 0 0 0 0 0 0 0 0 0 0 0 0 0 0 0 0 0 0 0 0 0 0 0
0 0 0 0 0 0 0 0 0 0 0 0 0 0 0 0 0 0 0 0 0 0 0 0 0 0 0 0 0 0 0 0 0 0 0 0 0 0 0 0 0 0 0 0
0 0 0 0 0 0 0 0 0 0 0 0 0 0 0 0 0 0 0 0 0 0 0 0 0 0 0 0 0 0 0 0 0 0 0 0 0 0 0 0 0 0 0 0
0 0 0 0 0 0 0 0 0 0 0 0 0 0 0 0 0 0 0 0 0 0 0 0 0 0 0 0 0 0 0 0 0 0 0 0 0 0 0 0 0 0 0 0
0 0 0 0 0 0 0 0 0 0 0 0 0 0 0 0 0 0 0 0 0 0 0 0 0 0 0 0 0 0 0 0 0 0 0 0 0 0 0 0 0 0 0 0
Wind_Speed
3 5 1 4 5 4 3 3 1 1 1 4 5 7 7 6 7 8 7 7 8 7 7 6 6 6 6 6 6 6 6 4 3 2 1 1 2 2 3 3 4 5 5 4
5 2 5 3 4 3 3 2 1 2 3 5 6 6 4 4 5 7 8 7 8 8 7 6 6 6 6 5 5 6 6 5 5 3 1 1 1 1 2 3 4 5 5 4
2 5 1 3 2 2 2 4 5 5 4 6 6 4 1 1 2 5 6 7 8 8 8 6 6 6 6 6 6 5 6 6 6 5 3 3 3 2 3 4 4 5 5 5
2 4 0 1 2 4 2 3 6 7 6 2 2 3 3 3 4 6 7 7 7 8 7 6 6 5 5 4 4 5 6 6 6 5 5 4 3 3 3 2 3 4 5 5
3 1 1 0 2 4 2 3 6 5 5 4 3 3 4 2 6 8 7 7 7 8 8 7 6 5 4 4 5 5 6 6 6 5 5 5 4 3 2 3 4 5 5 5
3 2 0 1 1 3 5 7 7 6 5 2 1 2 4 5 6 7 8 8 9 9 8 7 5 5 4 5 5 5 6 6 5 5 5 5 5 4 4 5 5 5 4 4
5 4 4 2 3 4 5 6 5 5 4 3 1 1 5 3 3 7 10 10 9 9 9 7 6 5 4 4 4 5 5 6 5 6 6 5 5 4 4 4 4 4 4 4
2 4 4 3 2 2 2 6 7 5 4 3 1 3 4 1 1 4 8 10 10 9 8 7 6 5 4 4 4 4 5 5 5 5 5 5 4 3 3 3 3 3 3 3
3 2 3 3 2 5 4 3 4 7 3 1 3 3 3 3 4 7 9 10 10 9 8 7 6 5 4 4 4 4 4 4 4 4 4 5 5 4 4 4 4 3 3 3
4 1 3 3 5 7 4 6 5 5 4 1 3 3 3 4 5 7 9 9 9 8 7 6 5 4 3 3 4 4 4 4 4 4 4 4 5 4 4 4 5 5 5 5
3 3 3 4 4 2 3 4 5 4 4 5 2 5 2 5 7 9 9 9 9 9 8 7 5 4 3 4 4 4 4 4 4 4 4 5 5 5 5 5 5 4 4 5
2 5 2 2 2 1 2 3 4 4 2 3 3 5 3 2 5 8 8 9 8 8 7 7 6 5 4 4 4 4 3 3 3 4 4 4 4 5 5 5 5 5 5 5
4 6 3 4 5 5 3 2 3 4 4 3 3 4 2 4 6 6 9 9 8 8 8 6 5 4 4 4 3 4 3 3 3 4 4 4 4 5 5 5 5 5 5 5
6 5 5 5 4 1 2 1 2 4 3 3 4 4 0 3 5 5 7 8 8 8 8 7 5 4 4 3 3 3 3 3 3 4 4 4 4 4 4 4 5 5 5 5
5 4 2 1 1 1 1 2 1 2 3 4 4 3 3 4 5 6 7 8 9 8 8 7 6 5 4 3 3 3 3 3 3 4 3 3 3 3 4 4 5 5 5 5
5 4 2 2 2 2 3 4 3 1 1 1 1 0 1 5 5 6 7 8 8 8 8 7 6 6 5 4 3 3 3 3 3 3 3 3 3 4 4 4 4 5 5 5
3 4 3 1 3 2 3 3 2 1 1 2 2 2 4 5 6 6 7 7 7 7 7 7 6 6 5 4 4 3 2 2 3 3 2 3 3 4 4 4 5 5 5 5
5 4 3 1 3 0 3 1 1 1 1 1 1 3 5 5 4 3 4 6 7 6 7 6 6 5 4 4 4 3 3 3 3 2 2 2 3 3 3 4 4 4 3 4
4 6 4 3 1 2 3 1 0 0 1 1 3 5 4 6 5 2 2 5 6 6 6 6 6 6 5 5 4 4 4 3 3 2 2 2 2 3 3 3 3 3 3 4
5 5 5 3 2 2 3 3 1 2 2 1 4 6 6 5 3 3 4 6 6 6 6 6 6 6 5 4 5 5 4 3 2 1 1 2 2 2 3 2 2 2 3 3
4 4 3 2 1 4 4 3 1 1 5 2 5 7 7 4 3 4 7 6 6 6 7 7 7 6 5 5 5 5 3 2 1 1 2 2 2 2 2 2 2 2 3 4
3 3 2 3 1 4 3 1 2 4 1 3 5 5 5 5 6 7 8 8 8 7 7 7 6 5 4 5 6 5 3 1 2 3 3 3 3 2 2 3 3 3 3 4
2 4 4 5 4 4 2 1 1 2 3 3 5 5 7 7 7 7 7 8 7 7 7 6 6 6 4 4 5 5 2 2 3 4 3 3 3 3 3 3 2 2 2 2
1 2 3 1 2 2 2 1 1 1 2 3 5 7 7 7 8 7 7 7 7 6 6 6 6 6 4 3 3 3 3 3 4 4 3 2 3 3 3 2 2 2 1 1
2 2 2 0 1 1 2 1 1 3 4 6 6 5 7 9 8 7 7 7 6 5 5 5 6 6 5 4 3 2 3 4 4 3 2 2 2 2 2 2 1 0 1 1
2 4 5 4 5 4 3 1 3 4 4 6 6 6 5 7 8 7 7 6 6 6 5 5 5 5 5 4 3 2 3 4 4 3 2 1 1 1 1 1 2 2 1 1
Wind_Direction
66 74 184 218 192 175 149 142 180 272 128 96 117 130 142 144 143 144 144 138 130 115 102 92 82 71 61 42 40 41 38 37 41 42 42 46 42 21 26 28 24 17 15 15
40 313 238 199 169 153 146 131 130 41 55 100 114 108 120 142 165 163 156 147 137 127 117 106 90 74 62 53 42 43 38 36 35 36 44 71 74 45 43 24 25 20 16 12
186 248 230 157 160 155 190 181 178 149 79 72 104 76 116 142 140 146 146 144 140 141 136 119 94 76 63 49 40 42 35 31 29 28 38 44 45 38 28 17 15 7 9 13
246 272 267 153 206 159 256 215 158 141 119 123 131 156 231 189 177 173 161 151 146 138 130 117 102 88 75 63 50 46 44 38 29 31 44 54 54 38 13 2 6 6 10 12
290 295 34 43 254 158 167 85 99 104 109 86 40 128 255 178 204 197 176 158 142 133 129 122 111 103 87 69 59 48 47 45 36 39 45 59 59 47 25 20 22 17 9 12
275 296 227 234 26 106 122 75 59 52 71 72 277 151 244 211 213 187 169 157 144 134 126 118 111 100 82 66 58 50 52 45 38 45 48 57 59 48 40 28 18 11 4 5
354 356 352 32 66 36 81 88 45 15 21 254 279 173 246 246 213 184 168 158 146 138 133 129 124 108 91 78 65 57 59 50 37 44 45 45 48 46 41 27 18 12 6 1
53 342 338 359 121 142 100 125 149 181 207 267 336 237 262 356 86 133 140 141 139 136 135 134 126 115 104 88 77 70 63 54 41 43 40 37 39 39 30 27 23 15 4 355
132 287 324 6 30 114 109 92 138 123 120 70 284 281 305 86 94 116 130 139 145 145 141 132 122 112 104 95 88 84 77 61 46 41 41 39 37 37 29 25 24 18 5 3
142 171 329 331 47 35 97 133 93 105 135 214 280 261 239 204 176 160 155 155 151 145 135 126 124 119 113 106 88 77 75 64 48 41 37 40 35 35 31 34 31 20 11 9
102 118 344 27 40 15 61 70 90 98 137 150 229 269 251 210 185 174 169 157 152 148 142 137 131 122 113 103 96 86 76 66 54 45 41 42 33 32 36 34 26 19 14 10
100 107 53 326 317 350 103 127 136 137 188 159 173 264 340 239 166 156 151 147 145 144 142 137 132 125 115 107 100 89 78 69 58 53 48 44 38 36 36 28 18 17 20 15
116 97 71 360 349 3 42 72 109 114 112 146 170 259 34 77 107 134 142 146 145 144 139 133 129 126 119 106 93 84 74 67 57 58 54 45 40 43 35 22 17 21 22 19
102 91 139 176 218 258 343 26 119 115 133 191 217 230 176 118 128 136 141 143 143 144 142 140 134 127 117 108 98 88 74 70 73 67 60 49 41 41 34 29 27 26 26 25
86 99 116 181 242 119 60 17 86 156 179 190 227 198 216 174 161 151 142 139 142 144 145 146 143 136 127 115 98 89 81 71 74 72 60 45 40 40 39 36 30 27 29 27
69 107 83 45 56 82 53 15 17 40 125 151 103 278 104 127 123 132 141 145 149 150 150 149 148 144 140 134 121 100 87 75 78 77 61 46 44 44 42 37 32 31 27 20
76 103 90 323 311 40 14 334 345 6 22 165 211 216 136 133 143 155 156 153 152 153 151 151 153 151 146 142 133 123 109 89 84 78 65 54 52 47 38 39 38 32 24 23
115 96 104 72 40 71 260 308 56 77 15 19 110 127 149 140 128 128 148 154 151 149 149 149 146 143 137 128 122 115 104 95 93 85 70 64 64 57 45 47 40 30 26 25
115 122 105 98 91 297 301 302 216 151 325 66 130 127 116 110 85 73 134 145 152 151 146 145 144 140 133 128 124 114 103 97 93 87 75 70 75 68 56 48 36 29 34 31
56 84 103 108 121 236 262 296 263 109 302 197 148 152 149 129 135 207 160 135 127 125 128 130 128 123 126 128 125 118 113 102 95 92 79 78 84 81 68 50 38 34 41 36
43 50 85 120 173 268 277 299 91 125 260 188 160 162 161 166 176 151 132 123 122 120 122 125 126 127 133 133 125 121 116 116 116 92 82 76 74 81 81 59 47 50 50 44
146 126 143 130 143 267 314 59 150 223 223 144 153 158 150 130 118 121 126 127 124 119 118 122 124 122 122 129 128 123 127 135 100 92 79 68 57 57 73 70 53 52 58 53
161 180 176 176 205 253 301 264 307 138 128 147 152 149 141 135 134 128 129 132 131 130 128 125 127 123 117 125 134 138 157 132 107 93 79 66 59 53 55 67 61 51 54 54
311 135 121 147 279 306 340 15 39 75 125 139 138 136 138 138 139 134 136 136 132 127 131 130 130 130 131 136 140 149 144 125 112 103 89 75 70 56 48 49 54 60 47 41
238 135 112 165 267 4 355 17 93 77 88 104 108 121 137 134 136 140 144 145 142 135 135 136 140 144 147 145 142 143 137 129 117 113 102 83 72 67 47 35 26 50 254 211
215 172 164 210 213 182 220 203 136 120 118 126 119 114 127 141 143 141 145 147 145 143 139 139 142 146 150 148 147 146 141 137 130 121 115 102 86 61 50 24 1 358 309 307